Aérodrome :
LOGIN :

S'inscrire | Disclaimer

   EN    FR    IT 

 










Légende :    VFR   VFR Marginal   IFR   IFR Intensif   IFR Très Intensif
Visi : 
Plafond : 
>= 8 km
>= 3000ft
5 à 8 km
1000 à 3000 ft
1500m à 5 km
500 à 1000 ft
800 à 1500m
200 à 500 ft
< 800m
< 200 ft
Symboles :   Orages  Brouillard  Fortes neiges  Fortes précipitations  Vent > 20 kt
SIGMETs :   Divers  Orages  Givrage  Turbulence  Onde Orograph.  Cendres Volcan.







- Altitude de l'aérodrome : 76 ft
- Code IATA : KID


ESMK - Kristianstad

DERNIER METAR :
  • 240020Z AUTO 35002KT 2000 -RA NCD 14/14 Q1011 REDZ

METARs EXPIRÉS :
  • 232350Z AUTO VRB02KT 2000 DZ FEW005/// SCT006/// BKN008/// 14/14 Q1012
  • 232320Z AUTO VRB02KT 4100 DZ FEW007/// BKN008/// OVC014/// 14/14 Q1012
  • 232250Z AUTO 06004KT 8000 FEW005/// SCT009/// BKN013/// 14/14 Q1012
  • 232220Z AUTO 08005KT 9000 FEW008/// BKN013/// OVC017/// 13/13 Q1012
  • 232150Z AUTO 07009KT 7000 BR FEW013/// OVC018/// 14/14 Q1012 RERA

Prévision TAF périmée.
Pas de NOTAMs connus pour ce terrain.



MET'MAP, la Météo Aéronautique d'un coup d'oeil ! - Copyright ORBIFLY Décembre 2007 - Disclaimer

ORBIFLY MET'MAP TEAM :

Programmation & Développement : Alexandra Zaïnal
Conception & Développement : Baudouin d'Aumeries
Co-Programmation & Développement : Marc-Olivier Méhu
Soutien technique & logistique : Manuel Goepfert

Contact : metmap@orbifly.com




SOURCES & CREDITS :

   NOAA